Madisonville, KY

3:02 AM CDT on October 17, 2017 (GMT -0500)
Madisonville

Weather History for K2I0 - February, 2014

Change the Weather History Date:

Tuesday, February 4, 2014

  Actual Average (KOWB) Record (KOWB)
Temperature  
Mean Temperature 26 °F -  
Max Temperature 34 °F 43 °F 73 °F (1962)
Min Temperature 17 °F 23 °F 0 °F (1939)
Degree Days  
Heating Degree Days 40    
Moisture  
Dew Point 28 °F    
Average Humidity 99    
Maximum Humidity 100    
Minimum Humidity 94    
Precipitation  
Precipitation 1.19 in - - ()
Sea Level Pressure  
Sea Level Pressure 30.10 in    
Wind  
Wind Speed 3 mph (ENE)    
Max Wind Speed 14 mph    
Max Gust Speed 18 mph    
Visibility 4 miles    
Events Fog , Snow    
Averages and records for this station are not official NWS values.
T = Trace of Precipitation, MM = Missing Value Source: NWS Daily Summary

Daily Weather History Graph

Daily Weather History Graph

Search for Another Location

Airport or City:

Trip Planner

Search our weather history database for the weather conditions in past years. The results will help you decide how hot, cold, wet, or windy it might be!

Date:

Astronomy

Feb. 04, 2014 Rise Set
Actual Time 6:50 AM CST 5:17 PM CST
Civil Twilight 6:22 AM CST 5:44 PM CST
Nautical Twilight 5:51 AM CST 6:15 PM CST
Astronomical Twilight 5:21 AM CST 6:46 PM CST
Moon 9:35 AM CST (2/4) 11:02 PM CST (2/4)
Length of Visible Light 11h 21m
Length of Day
10h 27m
Waxing Crescent, 29% of the Moon is Illuminated
Feb 4
Waxing Crescent
Feb 6
First Quarter
Feb 14
Full
Feb 22
Last Quarter
Mar 1
New

Hourly Weather History & Observations

Time (CST) Temp. Windchill Dew Point Humidity Pressure Visibility Wind Dir Wind Speed Gust Speed Precip Events Conditions
12:15 AM 17.6 °F - 17.1 °F 98% 30.30 in 0.2 mi Calm Calm - N/A Fog Light Freezing Fog
12:35 AM 18.0 °F - 17.8 °F 99% 30.30 in 0.5 mi Calm Calm - N/A Fog Light Freezing Fog
12:55 AM 18.7 °F - 18.5 °F 99% 30.30 in 0.5 mi Calm Calm - N/A Fog Light Freezing Fog
1:15 AM 17.6 °F - 17.1 °F 98% 30.30 in 1.5 mi Calm Calm - N/A   Mostly Cloudy
1:35 AM 17.6 °F 12.3 °F 17.2 °F 98% 30.29 in 2.5 mi East 3.5 mph - N/A   Clear
1:55 AM 18.0 °F - 17.6 °F 98% 30.29 in 3.0 mi Calm Calm - N/A   Clear
2:15 AM 18.1 °F - 17.6 °F 98% 30.28 in 4.0 mi Calm Calm - N/A   Clear
2:35 AM 18.0 °F - 17.4 °F 98% 30.29 in 4.0 mi Calm Calm - N/A   Clear
2:55 AM 17.6 °F - 17.2 °F 98% 30.28 in 4.0 mi Calm Calm - N/A   Mostly Cloudy
3:15 AM 18.9 °F 13.7 °F 18.5 °F 98% 30.27 in 4.0 mi ENE 3.5 mph - N/A   Overcast
3:35 AM 19.6 °F - 19.4 °F 99% 30.28 in 4.0 mi Calm Calm - N/A   Overcast
3:55 AM 21.2 °F 13.6 °F 21.2 °F 100% 30.24 in 4.0 mi East 5.8 mph - N/A   Overcast
4:15 AM 21.9 °F - 21.9 °F 100% 30.29 in 4.0 mi Calm Calm - N/A   Overcast
4:35 AM 21.9 °F - 21.9 °F 100% 30.31 in 4.0 mi Calm Calm - N/A   Mostly Cloudy
4:55 AM 21.9 °F 17.2 °F 21.9 °F 100% 30.30 in 4.0 mi North 3.5 mph - N/A   Scattered Clouds
5:15 AM 22.1 °F - 22.1 °F 100% 30.31 in 4.0 mi Calm Calm - N/A   Scattered Clouds
5:35 AM 23.0 °F 13.9 °F 23.0 °F 100% 30.27 in 4.0 mi ENE 8.1 mph - N/A   Scattered Clouds
5:55 AM 23.0 °F - 23.0 °F 100% 30.28 in 4.0 mi Calm Calm - N/A   Clear
6:15 AM 23.0 °F 17.0 °F 23.0 °F 100% 30.27 in 3.0 mi ENE 4.6 mph - N/A   Clear
6:35 AM 23.4 °F 17.4 °F 23.4 °F 100% 30.26 in 3.0 mi ENE 4.6 mph - N/A   Clear
6:55 AM 24.1 °F 17.0 °F 24.1 °F 100% 30.24 in 2.5 mi NE 5.8 mph - N/A   Clear
7:15 AM 24.6 °F 16.7 °F 24.6 °F 100% 30.24 in 2.5 mi ENE 6.9 mph - N/A   Scattered Clouds
7:35 AM 26.2 °F 15.2 °F 26.2 °F 100% 30.23 in 3.0 mi ENE 12.7 mph - N/A   Mostly Cloudy
7:55 AM 27.3 °F 18.4 °F 27.3 °F 100% 30.24 in 3.0 mi East 9.2 mph - N/A   Overcast
8:15 AM 28.4 °F 19.7 °F 28.4 °F 100% 30.25 in 4.0 mi ENE 9.2 mph - N/A   Overcast
8:35 AM 28.2 °F 22.0 °F 28.2 °F 100% 30.24 in 3.0 mi ENE 5.8 mph - N/A   Overcast
8:55 AM 28.8 °F 22.6 °F 28.8 °F 100% 30.25 in 3.0 mi ENE 5.8 mph - N/A   Overcast
9:15 AM 30.0 °F 23.2 °F 30.0 °F 100% 30.24 in 4.0 mi East 6.9 mph - N/A   Overcast
9:35 AM 30.2 °F 20.8 °F 30.2 °F 100% 30.21 in 5.0 mi East 11.5 mph - N/A   Overcast
9:55 AM 30.6 °F 21.2 °F 30.6 °F 100% 30.19 in 5.0 mi East 11.5 mph - N/A   Overcast
10:15 AM 30.6 °F 22.4 °F 30.6 °F 100% 30.20 in 5.0 mi East 9.2 mph - N/A   Overcast
10:35 AM 30.9 °F 22.8 °F 30.9 °F 100% 30.18 in 5.0 mi East 9.2 mph - N/A   Overcast
10:55 AM 31.1 °F 21.4 °F 31.1 °F 100% 30.17 in 7.0 mi ENE 12.7 mph - N/A   Overcast
11:15 AM 31.8 °F 23.9 °F 31.5 °F 99% 30.16 in 7.0 mi ENE 9.2 mph - N/A   Overcast
11:35 AM 32.0 °F 25.6 °F 31.1 °F 96% 30.17 in 7.0 mi NE 6.9 mph - N/A   Overcast
11:55 AM 32.0 °F 26.4 °F 30.6 °F 94% 30.19 in 10.0 mi ENE 5.8 mph - N/A   Overcast
12:15 PM 32.0 °F 25.6 °F 30.7 °F 95% 30.19 in 10.0 mi North 6.9 mph - N/A   Overcast
12:35 PM 32.0 °F 25.6 °F 30.4 °F 94% 30.16 in 2.0 mi NE 6.9 mph - N/A Snow Light Snow
12:55 PM 31.8 °F 23.3 °F 30.9 °F 96% 30.11 in 1.5 mi NE 10.4 mph - N/A Snow Light Snow
1:15 PM 31.8 °F 21.8 °F 31.1 °F 97% 30.06 in 2.0 mi NE 13.8 mph - 0.03 in Snow Light Snow
1:35 PM 32.0 °F 23.0 °F 31.1 °F 96% 30.08 in 4.0 mi ENE 11.5 mph 18.4 mph 0.06 in Snow Light Snow
1:55 PM 32.0 °F 22.5 °F 31.5 °F 98% 30.09 in 5.0 mi East 12.7 mph - 0.07 in Snow Light Snow
2:15 PM 32.0 °F 22.5 °F 32.0 °F 100% 30.04 in 3.0 mi East 12.7 mph 18.4 mph 0.04 in Snow Light Snow
2:35 PM 32.2 °F 23.2 °F 32.0 °F 99% 30.00 in 3.0 mi East 11.5 mph - 0.06 in   Overcast
2:55 PM 32.2 °F 23.8 °F 32.0 °F 99% 29.97 in 2.0 mi East 10.4 mph - 0.11 in   Overcast
3:15 PM 32.4 °F 24.6 °F 32.0 °F 99% 29.97 in 2.0 mi East 9.2 mph - 0.06 in   Overcast
3:35 PM 32.4 °F 29.1 °F 32.2 °F 99% 29.98 in 1.5 mi East 3.5 mph - 0.14 in Snow Light Snow
3:55 PM 32.4 °F 27.9 °F 32.4 °F 100% 29.95 in 1.5 mi ENE 4.6 mph - 0.24 in Snow Light Snow
4:15 PM 32.4 °F 26.9 °F 32.4 °F 100% 29.93 in 2.5 mi East 5.8 mph - 0.04 in   Overcast
4:35 PM 32.9 °F 29.8 °F 32.9 °F 100% 29.94 in 1.5 mi NE 3.5 mph - 0.12 in Snow Light Snow
4:55 PM 32.9 °F 28.5 °F 32.9 °F 100% 29.92 in 2.0 mi East 4.6 mph - 0.18 in Snow Light Snow
5:15 PM 32.9 °F 29.8 °F 32.9 °F 100% 29.93 in 2.0 mi NE 3.5 mph - 0.05 in Snow Light Snow
5:35 PM 32.9 °F - 32.9 °F 100% 29.94 in 3.0 mi Calm Calm - 0.10 in Snow Light Snow
6:15 PM 32.9 °F - 32.9 °F 100% 29.92 in 2.0 mi Calm Calm - 0.04 in Snow Light Snow
6:35 PM 32.9 °F - 32.9 °F 100% 29.91 in 2.0 mi Calm Calm - 0.13 in Snow Light Snow
6:55 PM 32.9 °F 29.8 °F 32.9 °F 100% 29.94 in 1.2 mi North 3.5 mph - 0.24 in Snow Light Snow
7:15 PM 32.9 °F - 32.9 °F 100% 29.91 in 2.0 mi Calm Calm - 0.08 in Snow Light Snow
7:35 PM 32.9 °F - 32.9 °F 100% 29.91 in 4.0 mi Calm Calm - 0.11 in Snow Light Snow
7:55 PM 33.1 °F - 33.1 °F 100% 29.91 in 3.0 mi Calm Calm - 0.16 in Snow Light Snow
8:15 PM 33.1 °F - 33.1 °F 100% 29.90 in 3.0 mi Calm Calm - 0.03 in Snow Light Snow
8:35 PM 33.1 °F 30.0 °F 33.1 °F 100% 29.85 in 4.0 mi East 3.5 mph - 0.08 in Snow Light Snow
8:55 PM 33.3 °F - 33.3 °F 100% 29.83 in 7.0 mi Calm Calm - 0.09 in   Overcast
9:15 PM 33.3 °F 30.2 °F 33.3 °F 100% 29.78 in 10.0 mi East 3.5 mph - N/A   Overcast
9:35 PM 33.8 °F 30.8 °F 33.8 °F 100% 29.77 in 10.0 mi ENE 3.5 mph - N/A   Overcast
9:55 PM 34.0 °F - 33.8 °F 99% 29.86 in 10.0 mi Calm Calm - N/A   Overcast
10:15 PM 33.8 °F - 33.8 °F 100% 29.85 in 3.0 mi Calm Calm - N/A   Overcast
10:35 PM 33.8 °F - 33.8 °F 100% 29.84 in 2.0 mi Calm Calm - N/A   Overcast
10:55 PM 33.4 °F - 33.4 °F 100% 29.83 in 2.5 mi Calm Calm - N/A   Overcast
11:15 PM 33.4 °F - 33.4 °F 100% 29.83 in 3.0 mi Calm Calm - N/A   Overcast
11:35 PM 33.4 °F - 33.4 °F 100% 29.83 in 3.0 mi Calm Calm - N/A   Overcast
11:55 PM 33.4 °F - 33.4 °F 100% 29.82 in 3.0 mi Calm Calm - N/A   Overcast